Вернуться в каталог

STARLINK-36195

АктивенСвязьVLEO
NORAD 67124·PAYLOAD·🇺🇸 United States

Запущен Dec 15, 2025 с Cape Canaveral Space Force Station

Loading…

Ближайшие Пролёты (ближайшие 24 часа)

TLE

СвежийSource: CelesTrak SupGP

Эпоха: Sep 14, 2026, 14:53 UTC

1 67124C 25299Y   26257.62062500  .00024009  00000+0  86965-3 0  2578
2 67124  43.0002 181.5395 0001447 268.2764 183.2728 15.27564329    10

Отслеживайте STARLINK-36195 в реальном времени с AllMySat

Download on the App Store